Vertical_Velocity
-2 -0 -1 -1 -0 -1 1 0 -2 -2 -1 0 -0 -3 -1 2 -3 -1 -0 -2 0 2 1 3 -1 -5 -4 -2 0 -1 -1 1 5 -5 -4 0 -0 2 1 3 1 0 3
-3 -0 0 -1 -0 1 0 -1 -1 -1 -1 -0 -2 -1 -6 -4 -0 2 -1 -1 -2 -2 -5 -1 1 -2 -3 -2 0 5 -2 -2 1 0 -3 -2 -5 -5 -5 -4 -2 -0 1
-1 0 0 -1 -1 -1 0 -1 -1 -3 1 2 1 -1 -1 -1 -2 -3 -3 -0 1 1 -1 -5 -2 1 1 -0 0 -5 4 -1 -3 1 -0 -1 -2 0 5 2 2 -0 4
0 -1 -0 0 -0 -0 -1 -0 -2 -3 -4 -3 -1 0 -1 3 4 -2 -6 -3 -2 -1 2 6 -1 -2 -1 -2 -3 -2 5 -2 -2 -0 1 -2 -2 -6 -1 1 1 -5 4
-2 0 2 1 -1 -1 -2 -2 -3 0 2 -2 -3 -3 -0 -1 0 2 0 -2 -9 -4 -1 -3 -3 -1 1 1 32 20 -2 8 -5 4 2 -2 -2 -3 -4 0 2 2 2
1 -2 1 -1 1 0 -2 -1 -1 -3 -2 -1 -2 -2 -3 1 -3 -2 3 4 1 0 -3 -2 -1 1 1 4 -1 2 -2 19 12 6 1 -4 3 0 -3 3 -2 4 10
-2 -0 -2 -1 1 0 -2 -3 -1 2 1 -0 0 -3 -0 2 -1 -1 -3 -2 2 -2 -0 1 -2 -2 0 -4 -1 -3 -3 -5 -5 11 4 -5 7 -10 0 -2 2 -5 2
0 3 -4 -2 3 4 0 -1 -0 0 1 3 0 0 2 4 5 -2 0 3 -2 -2 -0 2 2 -0 -3 0 -0 2 -2 -0 -2 3 5 4 -3 -3 -5 -4 2 -0 2
2 2 -0 -4 0 2 3 0 -1 -1 0 0 1 -1 -2 -0 3 1 9 0 -0 -1 2 3 -1 0 -5 -0 4 2 2 1 2 -1 1 -1 -1 -0 -3 -1 -2 -6 5
3 6 5 0 -1 3 3 2 1 1 -1 0 -1 1 0 -2 3 2 -4 -4 -3 2 -4 -3 3 -3 -1 -1 -0 -1 -2 -1 3 0 -0 2 -0 2 -0 -4 0 2 -4
1 0 5 3 -1 4 4 2 4 -1 2 1 1 -5 -5 -2 1 -0 -2 4 2 -0 -4 -3 -2 -4 -2 -3 -2 -0 1 3 1 3 6 3 3 -4 -2 -1 -4 -4 -4
-3 2 -2 -3 1 -0 2 4 8 17 3 0 -5 -5 -1 8 1 -2 -1 -5 -2 -0 -1 1 0 -1 -2 2 1 0 1 2 1 2 1 -3 -5 -0 0 -1 1 -2 -1
4 3 1 -6 0 -2 5 13 25 4 4 2 -4 -1 -3 1 -3 -4 -2 -0 -2 3 5 1 -0 3 1 -1 -2 5 2 -2 1 1 -0 -5 5 2 0 0 0 -3 -3
8 3 3 1 1 -2 0 -1 6 0 2 -3 -3 -4 -0 3 0 -2 1 0 -2 0 -1 3 -0 -1 -2 -3 -0 4 -3 2 4 3 1 -5 -2 -1 -2 -3 1 -1 2
13 5 6 7 7 6 6 6 -1 1 5 -3 -5 6 4 4 -2 -1 -1 -4 -1 -0 -1 -2 -3 -2 2 1 1 1 2 3 4 1 -2 0 0 1 1 -2 -3 1 2
14 13 38 4 8 6 3 -3 3 -3 -3 -2 0 1 2 0 -5 -2 -2 -2 -5 -4 -2 3 -5 -0 -1 -2 -4 -2 -2 2 6 7 7 4 2 -1 -1 -2 -0 0 3
6 5 2 18 12 3 7 7 1 3 3 3 -1 3 1 1 1 -1 1 -1 -3 -5 -6 -6 1 4 3 2 5 2 1 -2 -2 -0 1 0 2 -1 -0 1 2 1 0
6 19 8 7 -1 8 1 -8 -7 0 1 -3 0 2 -1 -2 3 5 2 -0 -3 -3 -2 -3 -2 -19 1 1 -4 -5 -4 -1 0 0 -2 -5 -5 -2 0 -0 -1 -0 -1
-0 7 1 0 1 1 -1 -1 0 0 -1 -3 -3 1 -2 -8 -1 2 -3 -5 -4 -4 -3 -0 8 4 -14 -1 -3 -3 -4 -7 -5 -6 -3 -2 -1 -1 -1 -0 -1 -1 -1
1 -4 8 3 3 6 -8 -4 -2 7 3 2 2 -1 -1 -6 1 5 -7 -3 -4 -6 2 -2 -14 11 4 1 2 3 3 -1 -2 -1 -3 -2 -2 -1 -1 0 -1 -2 -3
17 7 -6 1 -1 11 13 -14 5 2 14 6 6 5 -11 -7 -0 -0 -1 -7 -7 -0 3 -5 -8 1 -1 -5 -3 -4 -4 -1 1 -0 -1 -0 -1 -1 0 0 -1 -2 -1
-12 -4 -4 -5 1 -0 -3 -8 -3 1 3 -0 -1 2 0 -3 3 3 -5 -6 -6 3 -1 1 -9 0 1 -1 -3 -5 -4 -1 -4 -2 -0 -1 -1 -1 0 -0 -3 -1 -0
-0 -1 4 7 3 -1 -2 6 -5 1 -4 -4 3 -5 -3 -2 4 -0 2 0 -8 -14 -2 7 -5 -2 1 -1 -4 -2 -1 0 -2 -1 -0 -2 -1 0 0 -0 -1 -2 -1
7 13 -6 3 6 10 4 -2 -2 -1 1 2 1 2 2 -6 0 2 7 -2 -2 -6 5 6 -3 0 3 0 -5 -5 -6 -1 0 -0 -1 -2 -1 1 0 -0 -1 -2 -1
3 11 -15 3 1 -1 -4 -4 -3 -2 -6 2 -1 -4 -2 -7 5 -12 3 -2 -5 -4 -3 3 -2 1 -3 -1 1 -2 -3 -3 -2 -1 -2 -2 -1 -0 0 -1 -1 -1 -2
-3 -7 -2 3 3 0 -2 -2 -2 -3 -5 3 4 6 3 -0 -4 -2 4 -0 0 -4 -0 1 -3 -1 -0 -4 -3 -1 -1 -1 -1 -2 -1 -1 -1 -0 -1 -1 -1 -1 -1
Height
5892 5892 5893 5894 5897 5900 5902 5903 5905 5907 5906 5906 5907 5906 5904 5901 5899 5897 5894 5890 5887 5882 5877 5874 5872 5867 5864 5862 5862 5860 5859 5860 5859 5856 5853 5849 5849 5847 5845 5846 5846 5846 5845
5889 5889 5889 5890 5893 5897 5899 5900 5902 5903 5905 5904 5902 5901 5899 5897 5894 5891 5888 5885 5882 5879 5875 5870 5866 5863 5860 5857 5854 5852 5850 5850 5850 5848 5844 5838 5835 5835 5835 5835 5834 5834 5833
5887 5887 5887 5888 5891 5894 5896 5897 5898 5899 5900 5900 5898 5896 5893 5892 5889 5885 5882 5879 5877 5874 5870 5865 5860 5857 5853 5849 5846 5843 5841 5840 5837 5835 5834 5831 5829 5826 5822 5820 5820 5821 5819
5884 5885 5886 5886 5888 5890 5892 5893 5893 5893 5894 5894 5893 5890 5888 5886 5884 5882 5879 5875 5870 5867 5862 5858 5854 5850 5846 5842 5839 5837 5833 5832 5830 5826 5823 5823 5821 5819 5818 5815 5812 5808 5806
5881 5883 5883 5883 5884 5885 5887 5888 5889 5890 5889 5887 5887 5885 5883 5881 5878 5877 5874 5870 5865 5860 5856 5852 5847 5843 5840 5836 5829 5828 5825 5823 5821 5818 5815 5813 5811 5810 5808 5808 5804 5801 5797
5876 5879 5878 5879 5880 5881 5882 5883 5883 5883 5883 5882 5880 5878 5877 5875 5873 5870 5867 5863 5859 5853 5849 5844 5841 5836 5833 5830 5825 5822 5819 5816 5813 5810 5807 5804 5801 5797 5797 5794 5790 5787 5784
5869 5872 5873 5874 5875 5876 5876 5877 5878 5878 5877 5877 5875 5873 5871 5869 5865 5862 5861 5856 5851 5845 5840 5836 5832 5828 5825 5821 5818 5815 5812 5808 5805 5801 5797 5791 5790 5786 5781 5779 5776 5773 5767
5862 5865 5867 5868 5869 5869 5869 5871 5871 5871 5871 5870 5869 5867 5865 5862 5858 5854 5851 5847 5842 5836 5831 5828 5824 5820 5816 5812 5809 5805 5801 5798 5793 5789 5785 5781 5776 5772 5769 5765 5762 5758 5753
5854 5858 5860 5861 5862 5863 5863 5863 5864 5863 5863 5863 5862 5859 5857 5854 5850 5846 5842 5837 5832 5827 5823 5818 5815 5812 5807 5803 5799 5794 5790 5786 5782 5778 5773 5769 5763 5759 5755 5752 5749 5745 5740
5846 5850 5852 5853 5854 5855 5856 5856 5856 5855 5855 5854 5853 5851 5849 5845 5841 5837 5833 5827 5824 5820 5815 5811 5808 5802 5797 5791 5788 5784 5779 5773 5770 5765 5761 5756 5751 5747 5743 5738 5733 5729 5724
5836 5839 5842 5844 5846 5847 5848 5848 5847 5845 5846 5845 5843 5840 5838 5835 5832 5829 5824 5820 5815 5811 5806 5801 5796 5791 5786 5780 5776 5772 5767 5763 5758 5754 5749 5743 5737 5734 5729 5723 5718 5714 5711
5825 5828 5830 5834 5836 5838 5839 5838 5836 5834 5835 5834 5834 5832 5829 5825 5822 5818 5814 5809 5805 5800 5795 5790 5785 5780 5775 5769 5763 5760 5756 5751 5747 5742 5737 5731 5726 5720 5715 5711 5706 5702 5699
5815 5818 5820 5823 5827 5828 5829 5829 5828 5826 5826 5825 5824 5822 5819 5817 5814 5808 5803 5799 5794 5789 5785 5779 5775 5769 5764 5758 5753 5748 5744 5739 5735 5730 5725 5718 5713 5708 5704 5699 5695 5691 5688
5806 5808 5811 5814 5816 5818 5819 5819 5818 5817 5817 5816 5815 5812 5811 5807 5803 5797 5793 5788 5783 5778 5772 5768 5762 5758 5753 5748 5743 5739 5733 5729 5724 5718 5712 5707 5701 5697 5692 5689 5685 5681 5678
5796 5799 5800 5802 5804 5806 5807 5808 5808 5804 5805 5805 5804 5803 5799 5795 5792 5787 5782 5777 5772 5767 5761 5756 5752 5747 5742 5738 5735 5730 5724 5719 5714 5709 5703 5697 5692 5688 5683 5679 5675 5672 5668
5781 5784 5783 5788 5794 5795 5796 5795 5795 5795 5795 5794 5792 5790 5787 5783 5779 5775 5770 5766 5761 5755 5750 5746 5742 5737 5733 5728 5724 5720 5716 5712 5707 5701 5694 5688 5683 5679 5675 5670 5666 5663 5659
5768 5772 5771 5776 5781 5783 5785 5786 5784 5784 5784 5783 5781 5779 5775 5771 5768 5763 5759 5755 5750 5745 5741 5737 5733 5728 5724 5720 5717 5713 5708 5703 5698 5692 5686 5680 5675 5670 5667 5663 5659 5656 5652
5753 5755 5757 5765 5767 5770 5770 5770 5769 5771 5771 5772 5768 5765 5763 5759 5756 5752 5748 5744 5740 5734 5729 5725 5721 5718 5716 5712 5708 5705 5700 5696 5691 5686 5680 5674 5668 5665 5661 5657 5654 5650 5647
5744 5746 5751 5755 5757 5758 5760 5760 5759 5759 5757 5754 5754 5752 5751 5748 5742 5739 5737 5735 5729 5724 5721 5717 5715 5711 5708 5705 5702 5697 5692 5689 5684 5679 5674 5669 5664 5660 5655 5651 5648 5644 5640
5733 5738 5743 5744 5747 5748 5748 5747 5745 5748 5742 5744 5743 5741 5740 5736 5732 5729 5728 5724 5718 5715 5712 5710 5709 5706 5701 5698 5695 5692 5687 5684 5680 5675 5669 5664 5659 5654 5650 5646 5642 5637 5632
5725 5727 5730 5733 5735 5738 5734 5737 5735 5735 5734 5734 5733 5730 5727 5724 5721 5719 5717 5713 5710 5707 5705 5704 5702 5698 5695 5692 5689 5685 5682 5680 5675 5670 5665 5659 5654 5649 5645 5640 5636 5631 5626
5713 5712 5719 5720 5718 5719 5722 5722 5721 5725 5723 5720 5717 5716 5713 5711 5710 5709 5707 5704 5702 5699 5698 5696 5693 5692 5689 5687 5683 5680 5678 5675 5669 5664 5660 5655 5650 5645 5641 5636 5631 5627 5622
5699 5701 5703 5704 5705 5704 5705 5708 5709 5710 5711 5707 5705 5705 5703 5703 5703 5701 5697 5694 5693 5692 5691 5689 5687 5685 5683 5681 5678 5676 5673 5669 5665 5660 5655 5650 5646 5641 5637 5632 5627 5623 5618
5689 5691 5691 5693 5694 5693 5691 5696 5696 5698 5698 5697 5696 5694 5693 5692 5692 5691 5688 5687 5687 5685 5683 5682 5679 5677 5677 5675 5672 5669 5667 5664 5660 5655 5651 5646 5642 5637 5633 5627 5623 5619 5615
5675 5676 5676 5678 5683 5685 5685 5683 5684 5685 5685 5684 5683 5682 5683 5682 5681 5680 5679 5678 5678 5675 5675 5674 5673 5671 5670 5668 5666 5664 5661 5658 5654 5650 5647 5643 5638 5634 5629 5624 5620 5616 5613
5666 5668 5668 5670 5672 5672 5671 5673 5674 5673 5671 5672 5675 5674 5673 5672 5672 5670 5669 5669 5667 5666 5665 5666 5665 5664 5662 5661 5659 5657 5655 5652 5649 5645 5642 5639 5635 5631 5626 5621 5617 5613 5610